Location: Unspecified
(0.0000°N, 0.0000°E)
Time: 14:43:46
(UTC+00:00)

Envisat - Pass Details

Date: 27 November 2020
Orbit: 764 x 766 km, 98.1° (Epoch: 28 November)

Event Time Altitude Azimuth Distance (km) Brightness Sun altitude
Rises 04:40:33 0° 38° (NE) 3,215 6.4 -15.6°
Reaches altitude 10° 04:43:20 10° 53° (NE) 2,293 5.9 -15.0°
Maximum altitude 04:47:09 22° 102° (ESE) 1,634 5.7 -14.1°
Drops below altitude 10° 04:50:59 10° 152° (SSE) 2,301 6.2 -13.2°
Sets 04:53:46 0° 167° (SSE) 3,230 6.8 -12.6°
